Hourly Data Report for July 25, 2013

All times are specified in Local Standard Time (LST). Add 1 hour to adjust for Daylight Saving Time where and when it is observed.

VICTORIA INTL A
BRITISH COLUMBIA

48°38'50.000" N
123°25'33.000" W
19.50 m
1018621
71799
YYJ

Download Data

Hourly Data (July 2013)
Hourly Data Report for July 25, 2013
Temp Definition
°C
Dew Point Temp Definition
°C
Rel Hum Definition
%
Wind Dir Definition
10's deg

Wind Spd Definition
km/h
Visibility Definition
km
Stn Press Definition
kPa
Hmdx Definition


Wind Chill Definition


Weather Definition


TIME
00:00 Legend Double Dagger 13.8 10.8 82 11 4 48.3 101.44     LegendNANA
01:00 Legend Double Dagger 12.7 10.3 85 13 5 48.3 101.46     Clear
02:00 Legend Double Dagger 12.7 9.7 82 9 3 48.3 101.50     LegendNANA
03:00 Legend Double Dagger 11.5 9.8 89 14 3 48.3 101.54     LegendNANA
04:00 Legend Double Dagger 10.9 9.0 88 13 4 48.3 101.57     Clear
05:00 Legend Double Dagger 10.6 9.2 91 15 4 48.3 101.59     LegendNANA
06:00 Legend Double Dagger 13.0 11.1 88 17 3 48.3 101.63     LegendNANA
07:00 Legend Double Dagger 16.6 10.3 66 31 4 48.3 101.66     Clear
08:00 Legend Double Dagger 16.6 11.0 69 12 8 48.3 101.70     LegendNANA
09:00 Legend Double Dagger 18.5 11.4 63 10 11 48.3 101.71     LegendNANA
10:00 Legend Double Dagger 19.6 12.0 61 11 12 48.3 101.71     Clear
11:00 Legend Double Dagger 18.7 11.4 62 13 15 48.3 101.71     LegendNANA
12:00 Legend Double Dagger 19.9 12.0 60 13 16 48.3 101.73     LegendNANA
13:00 Legend Double Dagger 20.5 12.8 61 13 20 48.3 101.69     Clear
14:00 Legend Double Dagger 20.9 12.7 59 13 21 48.3 101.68     LegendNANA
15:00 Legend Double Dagger 21.2 12.2 56 13 19 48.3 101.65     LegendNANA
16:00 Legend Double Dagger 20.6 11.6 56 12 19 48.3 101.62     Mainly Clear
17:00 Legend Double Dagger 18.7 11.6 63 10 13 48.3 101.60     LegendNANA
18:00 Legend Double Dagger 19.5 11.6 60 9 9 48.3 101.58     LegendNANA
19:00 Legend Double Dagger 17.5 11.2 66 8 6 48.3 101.59     Clear
20:00 Legend Double Dagger 15.0 10.7 75 8 7 48.3 101.58     LegendNANA
21:00 Legend Double Dagger 14.1 10.6 79 14 2 48.3 101.62     LegendNANA
22:00 Legend Double Dagger 14.0 10.1 77 6 2 48.3 101.63     Clear
23:00 Legend Double Dagger 13.5 10.2 80 21 2 48.3 101.65     LegendNANA

Notes on Data Quality.

Legend

  • E = Estimated
  • M = Missing
  • NA = Not Available
  • ‡ = Partner data that is not subject to review by the National Climate Archives
Date modified: